Location: Derby
(52.9213°N, 1.4761°W)
Time: 16:49:00
(UTC+01:00)

Vanguard 1 - Pass Details

Date: 20 May 2025
Orbit: 649 x 3822 km, 34.3° (Epoch: 14 June)

Event Time Altitude Azimuth Distance (km) Brightness Sun altitude
Rises 23:09:06 0° 262° (W) 5,481 14.1 -12.9°
Reaches altitude 10° 23:15:55 10° 237° (WSW) 3,667 12.9 -13.3°
Maximum altitude 23:19:03 12° 217° (SW) 3,119 12.4 -13.5°
Drops below altitude 10° 23:21:44 10° 195° (SSW) 2,978 12.1 -13.7°
Enters shadow 23:21:53 10° 193° (SSW) 2,981 12.1 -13.7°
Sets 23:25:53 0° 164° (SSE) 3,482 - -13.9°
